Regional Weather Roundup
Issued by NWS

Home | Current Version | Previous Version | Text Only | Print | Product List | Glossary Off
Versions: 1 2 3 4 5 6 7 8 9 10 11 12 13 14 15 16 17 18 19 20 21 22 23 24 25 26 27 28 29 30 31 32 33 34 35 36 37 38 39 40 41 42 43 44 45 46 47 48 49 50

000
ASUS45 KCYS 080710
RWRWY

WYOMING REGIONAL WEATHER ROUNDUP
NATIONAL WEATHER SERVICE CHEYENNE WY
1200 AM MST THU DEC 08 2016

NOTE:  "FAIR" INDICATES FEW OR NO CLOUDS BELOW 12,000 FEET
WITH NO SIGNIFICANT WEATHER AND/OR OBSTRUCTIONS TO VISIBILITY.

WYZ001-080800-
YELLOWSTONE NATIONAL PARK

CITY           SKY/WX    TMP DP  RH WIND       PRES   REMARKS
LK YELLOWSTONE   N/A    -11 -15  82 VRB3      30.18F
W YELLOWSTONE  NOT AVBL

$$
WYZ002>013-054>058-071-098>099-080800-
NORTHERN WYOMING

CITY           SKY/WX    TMP DP  RH WIND       PRES   REMARKS
JACKSON        FAIR     -17 -18  91 N6        30.27F WCI -31
CODY           FAIR      -8 -13  78 CALM      30.38F
GREYBULL       FAIR      -1  -7  75 S3        30.49S
WORLAND        FAIR      -5  -9  83 CALM      30.46S
SHERIDAN       FAIR      -9 -14  78 CALM      30.48F
BUFFALO        FAIR      -3 -13  62 W6        30.40S WCI -15
GILLETTE       FAIR      -8 -11  86 W7        30.45S WCI -23
HULETT         FAIR      -6  -9  84 SW9       30.46S WCI -22
NEWCASTLE      FAIR      -8 -15  71 NW7       30.46S WCI -22

$$
WYZ014>020-022>026-101>103-080800-
CENTRAL WYOMING

CITY           SKY/WX    TMP DP  RH WIND       PRES   REMARKS
BIG PINEY      FAIR     -16 -21  78 CALM      30.24S
PINEDALE       FAIR     -18 -26  69 NW6       30.24F WCI -33
DUBOIS         FAIR     -11 -17  77 NW6       30.19S WCI -25
LANDER         CLOUDY     1  -6  72 SW8       30.32F WCI -13
RIVERTON       CLOUDY     2  -4  76 CALM      30.34S
CASPER         FAIR     -27 -32  77 CALM      30.38S
DOUGLAS        FAIR     -15 -22  70 NW6       30.42F WCI -29

$$
WYZ021-027>030-104>119-080800-
SOUTHERN WYOMING

CITY           SKY/WX    TMP DP  RH WIND       PRES   REMARKS
EVANSTON       FAIR       1  -9  62 SE6       30.20S WCI -10
KEMMERER         N/A     -8 -13  77 N13       30.20S WCI -28
FORT BRIDGER   FAIR       4  -3  75 CALM      30.24F
ROCK SPRINGS   FAIR      -4  -9  79 SE8       30.24F WCI -19
DIXON          FAIR      -1  -8  71 E5        30.31F WCI -11
RAWLINS        FAIR     -12 -17  78 CALM      30.25F
SARATOGA       FAIR      -9 -15  77 CALM      30.25F
LARAMIE        FAIR     -14 -18  82 CALM      30.21S
CHEYENNE       FAIR     -13 -18  78 W5        30.31S WCI -25
TORRINGTON     FAIR      -7 -11  83 W7        30.47R WCI -21
PINE BLUFFS    FAIR     -15 -22  70 MISG      30.41S

$$



USA.gov is the U.S. government's official web portal to all federal, state and local government web resources and services.